Погода в Иббе

Йемен     13°58′22″N   44°10′25″E
темп.,
°C
ветер,
м/с
пор.,
м/с
влажн.,
%
обл.,
%
осадки,
мм/ч
давл.,
гПа
погр.,
м
26 февраля, пт
пт2600:00+17зсз00740 0.3 101533
03:00+16ю01780 0.4 101425
06:00+15вюв22810 0.0 101531
09:00+18вюв33460 0.0 1016658
12:00+21юв44280 0.0 10141451
15:00+22ю53280 0.1 10111759
18:00+19ю33490 0.0 1012917
21:00+17вюв33530 0.0 1014274
27 февраля, сб
сб2700:00+16вюв22510 0.0 101452
03:00+15вюв22480 0.0 101232
06:00+14вюв22590 0.0 101424
09:00+18юв44360 0.0 1015593
12:00+21юв43290 0.0 10131330
15:00+22ююз53330 0.0 10102070
18:00+19ю22440 0.1 1011922
21:00+16юв22620 0.1 1014240
28 февраля, вс
вс2800:00+16вюв22670 0.0 101384
03:00+14в12730 0.0 101236
06:00+13в01670 0.0 101323
09:00+17юв22410 0.0 1015458
12:00+20ю33340 0.0 10131533
15:00+21юз44368 0.3 10101746
18:00+19ююз22400 0.3 1012932
21:00+16юв22518 0.5 1014242
1 марта, пн
пн100:00+16зсз115720 0.0 1014129
03:00+15ссз337910 0.0 1013164
06:00+14ссз227917 0.0 101562
09:00+18з114416 0.0 1016542
12:00+21з223727 0.0 10141722
15:00+19з225461 0.9 10111195
18:00+17ююв126768 2.5 1013738
21:00+16юв127274 3.9 1015136
2 марта, вт
вт200:00+16ююв117331 0.1 1015143
03:00+15зюз118016 0.2 101464
06:00+14ссз11900 0.1 101556
09:00+17юв22678 0.1 1017468
12:00+20ююв33530 0.3 10151335
15:00+19ююз236140 1.7 1012988
18:00+17ююв3365100 2.4 1014693
21:00+16юв337079 2.5 1016362